Location: Champs
(48.8539°N, 2.6040°E)
Time: 01:01:32
(UTC+00:00)

USA 308 - Pass Details

Date: 03 June 2022
Orbit: 549 x 558 km, 54.0° (Epoch: 14 June)

Event Time Altitude Azimuth Distance (km) Brightness Sun altitude
Rises 22:21:02 0° 240° (WSW) 2,719 6.3 -16.2°
Reaches altitude 10° 22:23:16 10° 240° (WSW) 1,830 5.4 -16.3°
Maximum altitude 22:27:25 88° 155° (SSE) 561 2.7 -16.5°
Drops below altitude 10° 22:31:39 10° 63° (ENE) 1,851 5.6 -16.7°
Sets 22:33:52 0° 63° (ENE) 2,744 6.5 -16.9°
